This is the latest recevied weather packets stored in our database for station/object K7D3. If no packets are shown the sender has not sent any weather packets the latest 10 day(s).
| Time | Temp. | Humidity | Pressure | Rain* | Wind** | Luminosity | Snow |
|---|---|---|---|---|---|---|---|
| 1777690912 | 2.78° C | 73% | - | 0 mm | 0 m/s | - | - |
| 1777690432 | 2.78° C | 73% | - | 0 mm | 1.34 m/s, 21° | - | - |
| 1777689950 | 2.78° C | 72% | - | 0 mm | 2.68 m/s, 77° | - | - |
| 1777689470 | 3.33° C | 71% | - | 0 mm | 0.89 m/s, 65° | - | - |
| 1777688991 | 3.33° C | 71% | - | 0 mm | 1.79 m/s, 354° | - | - |
| 1777688508 | 3.33° C | 70% | - | 0 mm | 0.89 m/s, 353° | - | - |
| 1777688028 | 3.33° C | 69% | - | 0 mm | 0 m/s | - | - |
| 1777687548 | 3.33° C | 69% | - | 0 mm | 0 m/s | - | - |
| 1777687065 | 3.33° C | 67% | - | 0 mm | 0 m/s | - | - |
| 1777686586 | 3.33° C | 66% | - | 0 mm | 1.34 m/s, 316° | - | - |
| 1777686107 | 3.89° C | 65% | - | 0 mm | 0 m/s | - | - |
| 1777685624 | 3.89° C | 64% | - | 0 mm | 0 m/s | - | - |
| 1777685144 | 3.89° C | 64% | - | 0 mm | 1.34 m/s, 15° | - | - |
| 1777684665 | 3.89° C | 63% | - | 0 mm | 0 m/s | - | - |
| 1777684183 | 3.89° C | 63% | - | 0 mm | 0.45 m/s, 326° | - | - |
| 1777683704 | 3.89° C | 62% | - | 0 mm | 0 m/s | - | - |
| 1777683224 | 3.89° C | 62% | - | 0 mm | 2.24 m/s, 8° | - | - |
| 1777682742 | 3.89° C | 61% | - | 0 mm | 2.24 m/s, 332° | - | - |
| 1777682263 | 4.44° C | 61% | - | 0 mm | 2.24 m/s, 336° | - | - |
| 1777681783 | 4.44° C | 60% | - | 0 mm | 1.34 m/s, 352° | - | - |
| 1777681297 | 4.44° C | 58% | - | 0 mm | 1.34 m/s, 11° | - | - |
| 1777680818 | 4.44° C | 58% | - | 0 mm | 1.34 m/s, 356° | - | - |
| 1777680338 | 4.44° C | 56% | - | 0 mm | 0 m/s | - | - |
| 1777679856 | 5° C | 55% | - | 0 mm | 3.13 m/s, 41° | - | - |
| 1777679377 | 5° C | 55% | - | 0 mm | 1.34 m/s, 330° | - | - |
* Rain latest hour (hover to see other rain measurements)
** Current wind speed in m/s (hover to see current wind gust speed)